Flag for Austria Weather past 2 weeks in Oberwart, Burgenland, Austria

Now
58 °F

Light rain. Overcast.


Feels Like: 57 °F
Forecast: 49 / 60 °F
Wind: 6 mph from Northwest

Location: Eisenstadt

Current Time: May 26, 2015 at 7:54:27 AM

Latest Report: May 26, 2015 at 7:00 AM


Visibility: 9 mi

Pressure: 29.77 "Hg

Humidity: 80%

Dew point: 51 °F

Location of OberwartLocation

Historic Weather in Oberwart — Graph

°F

Oberwart temperature yesterday

Maximum temperature yesterday: 66 °F (at 3:00 PM)
Minimum temperature yesterday: 54 °F (at 6:00 AM)
Average temperature yesterday: 60 °F

Past Weeks' High & Low Weather Summary

 TemperatureHumidityPressure
High78 °F (May 12, 4:00 PM)95% (May 16, 12:00 AM)30.39 "Hg (May 16, 12:00 AM)
Low46 °F (May 11, 6:00 AM)29% (May 12, 12:00 PM)29.73 "Hg (May 19, 6:00 AM)
Average59 °F71%30.00 "Hg
* Reported May 11 5:00 AM — May 26 5:00 AM, Oberwart, Weather by CustomWeather, © 2015

Note: Actual official high and low records may vary slightly from our data, if they occured in-between our weather recording intervals... More about our weather records

Advertising

Oberwart weather history for previous 24 hours

 ConditionsComfort  
Time TempWeatherWind HumidityBarometerVisibility
5:00 AM
Tue, May 26
59 °FOvercast.2 mph71%29.77 "Hg7 mi
4:00 AM60 °FOvercast.5 mph70%29.75 "Hg7 mi
3:00 AM60 °FCool.5 mph70%29.74 "HgN/A
2:00 AM59 °FOvercast.3 mph74%29.76 "Hg7 mi
1:00 AM60 °FCool.5 mph73%29.77 "HgN/A
12:00 AM60 °FCool.3 mph78%29.78 "HgN/A
10:00 PM
Mon, May 25
60 °FCool.2 mph78%29.80 "HgN/A
9:00 PM62 °FCool.2 mph72%29.79 "HgN/A
8:00 PM63 °FOvercast.2 mph70%29.77 "Hg7 mi
7:00 PM64 °FOvercast.2 mph70%29.78 "Hg7 mi
6:00 PM64 °FMild.2 mph72%29.79 "HgN/A
5:00 PM64 °FOvercast.5 mph68%29.80 "Hg7 mi
4:00 PM66 °FMild.2 mph64%29.82 "HgN/A
3:00 PM66 °FMild.3 mph58%29.83 "HgN/A
2:00 PM66 °FOvercast.3 mph59%29.84 "Hg12 mi
1:00 PM65 °FMild.7 mph59%29.84 "HgN/A
12:00 PM64 °FMild.7 mph61%29.85 "HgN/A
11:00 AM63 °FOvercast.7 mph63%29.86 "Hg12 mi
10:00 AM60 °FCool.9 mph69%29.86 "HgN/A
9:00 AM58 °FCool.9 mph71%29.88 "HgN/A
8:00 AM58 °FOvercast.8 mph73%29.88 "Hg12 mi
7:00 AM56 °FOvercast.8 mph78%29.90 "Hg12 mi
Weather by CustomWeather, © 2015

See weather overviewHow to use our weather pages